Location: Domont
(49.0278°N, 2.3264°E)
Time: 17:11:27
(UTC+00:00)

Envisat - Pass Details

Date: 05 February 2022
Orbit: 764 x 765 km, 98.2° (Epoch: 19 May)

Event Time Altitude Azimuth Distance (km) Brightness Sun altitude
Rises 04:43:41 0° 15° (NNE) 3,244 6.5 -25.2°
Reaches altitude 10° 04:46:01 10° 17° (NNE) 2,314 5.7 -24.8°
Maximum altitude 04:51:07 75° 103° (ESE) 798 3.1 -24.0°
Drops below altitude 10° 04:56:11 10° 189° (S) 2,298 5.4 -23.1°
Sets 04:58:29 0° 191° (S) 3,220 6.1 -22.8°
